| time (UTC) | temp C | wind direction | speed KPH | gust KPH | rain 1hr cm | rain 24hr cm | rain mn cm | humidity % | barometer mb |
| 20260504231513 | 20 | 32 | 22.5 | 30.6 | 0.00 | 0.00 | 0.00 | 41 | 1009.1 |
| 20260504230014 | 20 | 49 | 16.1 | 24.1 | 0.00 | 0.00 | 0.00 | 41 | 1008.9 |
| 20260504224516 | 20 | 19.3 | 33.8 | 0.00 | 0.00 | 0.00 | 41 | 1008.9 | |
| 20260504223014 | 21 | 39 | 20.9 | 35.4 | 0.00 | 0.00 | 0.00 | 1008.8 | |
| 20260504221524 | 21 | 316 | 17.7 | 30.6 | 0.00 | 0.00 | 0.00 | 39 | 1008.9 |
| 20260504220031 | 21 | 11 | 14.5 | 27.4 | 0.00 | 0.00 | 0.00 | 38 | 1008.7 |
| 20260504214522 | 21 | 21 | 20.9 | 30.6 | 0.00 | 0.00 | 0.00 | 38 | 1008.8 |
| 20260504213018 | 21 | 41 | 16.1 | 29.0 | 0.00 | 0.00 | 0.00 | 38 | 1008.9 |
| 20260504211526 | -17 | 0.0 | 0.0 | 0.00 | 0.00 | 0.00 | 1008.9 | ||
| 20260504210018 | 21 | 87 | 14.5 | 24.1 | 0.00 | 0.00 | 0.00 | 38 | 1009.0 |
| 20260504204523 | 21 | 0.0 | 0.0 | 0.00 | 0.00 | 0.00 | 39 | 1009.0 | |
| 20260504203019 | 21 | 68 | 20.9 | 27.4 | 0.00 | 0.00 | 0.00 | 37 | 1009.2 |
| 20260504201521 | 21 | 14.5 | 20.9 | 0.00 | 0.00 | 0.00 | 1009.5 | ||
| 20260504200020 | 21 | 48 | 14.5 | 37.0 | 0.00 | 0.00 | 0.00 | 37 | 1009.6 |
| 20260504194520 | 21 | 108 | 9.7 | 29.0 | 0.00 | 0.00 | 0.00 | 41 | 1009.8 |
| 20260504193021 | 20 | 96 | 9.7 | 32.2 | 0.00 | 0.00 | 0.00 | 41 | 1010.1 |
| 20260504191523 | 20 | 70 | 14.5 | 20.9 | 0.00 | 0.00 | 0.00 | 41 | 1010.1 |
| 20260504190023 | 20 | 60 | 14.5 | 33.8 | 0.00 | 0.00 | 0.00 | 39 | 1010.3 |
| 20260504184522 | 20 | 57 | 14.5 | 35.4 | 0.00 | 0.00 | 0.00 | 42 | 1010.5 |
| 20260504183009 | 20 | 27 | 11.3 | 29.0 | 0.00 | 0.00 | 0.00 | 42 | 1010.7 |
| 20260504181530 | 20 | 80 | 29.0 | 41.8 | 0.00 | 0.00 | 0.00 | 43 | 1011.0 |
| 20260504180019 | 20 | 115 | 17.7 | 29.0 | 0.00 | 0.00 | 0.00 | 43 | 1011.2 |
| 20260504174522 | 19 | 50 | 19.3 | 30.6 | 0.00 | 0.00 | 0.00 | 39 | 1011.3 |
| 20260504173022 | 19 | 31 | 20.9 | 40.2 | 0.00 | 0.00 | 0.00 | 40 | 1011.4 |
| 20260504171524 | 18 | 94 | 16.1 | 29.0 | 0.00 | 0.00 | 0.00 | 43 | 1011.6 |
| 20260504081534 | 2 | 131 | 1.6 | 4.8 | 0.00 | 0.00 | 0.00 | 81 | 1014.4 |
| 20260504044507 | 2 | 139 | 3.2 | 3.2 | 0.00 | 0.00 | 0.00 | 80 | 1014.5 |
| 20260504043026 | 2 | 134 | 3.2 | 4.8 | 0.00 | 0.00 | 0.00 | 80 | 1014.5 |
| 20260504041526 | 3 | 138 | 1.6 | 4.8 | 0.00 | 0.00 | 0.00 | 78 | 1014.4 |
| 20260504040021 | 3 | 138 | 1.6 | 3.2 | 0.00 | 0.00 | 0.00 | 78 | 1014.4 |
| 20260504034532 | 3 | 146 | 1.6 | 3.2 | 0.00 | 0.00 | 0.00 | 76 | 1014.3 |
| 20260504033014 | 3 | 120 | 3.2 | 4.8 | 0.00 | 0.00 | 0.00 | 76 | 1014.1 |
| 20260504031531 | 3 | 140 | 3.2 | 4.8 | 0.00 | 0.00 | 0.00 | 76 | 1014.2 |
| 20260504030012 | 3 | 141 | 1.6 | 0.0 | 0.00 | 0.00 | 0.00 | 76 | 1014.1 |
| 20260504024541 | -17 | 0.0 | 0.0 | 0.00 | 0.00 | 0.00 | 1014.1 | ||
| 20260504023031 | -17 | 0.0 | 0.0 | 0.00 | 0.00 | 0.00 | 1014.1 | ||
| 20260504021530 | -17 | 0.0 | 0.0 | 0.00 | 0.00 | 0.00 | 1014.2 | ||
| 20260504020028 | -17 | 0.0 | 0.0 | 0.00 | 0.00 | 0.00 | 1014.2 | ||
| 20260504014528 | -17 | 0.0 | 0.0 | 0.00 | 0.00 | 0.00 | 1014.2 | ||
| 20260504013028 | -17 | 0.0 | 0.0 | 0.00 | 0.00 | 0.00 | 1014.1 | ||
| 20260504011528 | -17 | 0.0 | 0.0 | 0.00 | 0.00 | 0.00 | 1014.0 | ||
| 20260504010030 | -17 | 0.0 | 0.0 | 0.00 | 0.00 | 0.00 | 1014.0 | ||
| 20260504004540 | -17 | 0.0 | 0.0 | 0.00 | 0.00 | 0.00 | 1013.8 | ||
| 20260504003026 | 10 | 82 | 4.8 | 8.0 | 0.00 | 0.00 | 0.00 | 48 | 1013.7 |
| 20260504001522 | 10 | 103 | 1.6 | 3.2 | 0.00 | 0.00 | 0.00 | 47 | 1013.3 |
| 20260504000026 | 11 | 82 | 3.2 | 8.0 | 0.00 | 0.00 | 0.00 | 46 | 1013.2 |
| 20260503234529 | 11 | 90 | 4.8 | 11.3 | 0.00 | 0.00 | 0.00 | 44 | 1013.2 |
| 20260503233015 | 12 | 77 | 4.8 | 12.9 | 0.00 | 0.00 | 0.00 | 42 | 1013.1 |